Location: ??????
(41.3164°N, 22.6615°E)
Time: 10:25:54
(UTC+00:00)

Iridium 4 Rocket - Pass Details

Date: 16 October 2021
Orbit: 586 x 903 km, 86.9° (Epoch: 07 December)

Event Time Altitude Azimuth Distance (km) Brightness Sun altitude
Rises 17:46:59 0° 352° (N) 2,890 6.7 -23.3°
Reaches altitude 10° 17:49:10 10° 348° (NNW) 2,011 5.9 -23.7°
Maximum altitude 17:53:27 52° 272° (W) 820 3.9 -24.5°
Drops below altitude 10° 17:58:04 10° 196° (SSW) 2,162 5.9 -25.3°
Sets 18:00:29 0° 192° (SSW) 3,130 6.7 -25.8°
